Weather History for Canton, GA

Change the Weather History Date:

Tuesday, March 26, 2013

  Actual Average (KGVL) Record (KGVL)
Temperature  
Mean Temperature 37 °F 55 °F  
Max Temperature 42 °F 65 °F 82 °F (1991)
Min Temperature 32 °F 45 °F 24 °F (1940)
Degree Days  
Heating Degree Days 28 10  
Month to date heating degree days 341  
Since 1 July heating degree days 2805  
Cooling Degree Days 0 0  
Month to date cooling degree days 0  
Year to date cooling degree days 0  
Moisture  
Dew Point 20 °F    
Average Humidity 54    
Maximum Humidity 75    
Minimum Humidity 33    
Precipitation  
Precipitation 0.00 in 0.15 in 5.33 in (1964)
Month to date precipitation 4.66  
Year to date precipitation 14.56  
Sea Level Pressure  
Sea Level Pressure 30.13 in    
Wind  
Wind Speed 7 mph (NW)    
Max Wind Speed 14 mph    
Max Gust Speed 29 mph    
Visibility 9 miles    
Events Snow    
T = Trace of Precipitation, MM = Missing Value Source: NWS Daily Summary

Daily Weather History Graph

Daily Weather History Graph

Search for Another Location

Airport:

Trip Planner

Search our weather history database for the weather conditions in past years. The results will help you decide how hot, cold, wet, or windy it might be!

Date:

Astronomy

Mar. 26, 2013 Rise Set
Actual Time 7:32 AM EDT 7:54 PM EDT
Civil Twilight 7:07 AM EDT 8:19 PM EDT
Nautical Twilight 6:38 AM EDT 8:48 PM EDT
Astronomical Twilight 6:08 AM EDT 9:18 PM EDT
Moon 7:29 PM EDT (3/26) 6:48 AM EDT (3/26)
Length of Visible Light 13h 11m
Length of Day
12h 21m
Waxing Gibbous, 99% of the Moon is Illuminated
Mar 26
Waxing Gibbous
Mar 27
Full
Apr 3
Last Quarter
Apr 10
New
Apr 18
First Quarter

Hourly Weather History & Observations

Time (EDT) Temp. Windchill Dew Point Humidity Pressure Visibility Wind Dir Wind Speed Gust Speed Precip Events Conditions
12:15 AM 32.0 °F 26.4 °F 17.6 °F 55% 30.05 in 10.0 mi WNW 5.8 mph - N/A   Mostly Cloudy
12:35 AM 32.0 °F 25.6 °F 17.6 °F 55% 30.06 in 10.0 mi WNW 6.9 mph - N/A   Scattered Clouds
12:55 AM 32.0 °F 24.8 °F 17.6 °F 55% 30.06 in 10.0 mi WNW 8.1 mph - N/A   Overcast
1:15 AM 32.0 °F 26.4 °F 17.6 °F 55% 30.06 in 10.0 mi WNW 5.8 mph - N/A   Overcast
1:35 AM 32.0 °F 24.8 °F 19.4 °F 60% 30.05 in 10.0 mi WNW 8.1 mph - N/A   Overcast
1:55 AM 32.0 °F 25.6 °F 19.4 °F 60% 30.05 in 10.0 mi WNW 6.9 mph - N/A Snow Light Snow
2:15 AM 32.0 °F 26.4 °F 19.4 °F 60% 30.06 in 5.0 mi WNW 5.8 mph - N/A Snow Light Snow
2:55 AM 32.0 °F 26.4 °F 19.4 °F 60% 30.05 in 10.0 mi WNW 5.8 mph - N/A   Overcast
3:15 AM 32.0 °F 27.5 °F 19.4 °F 60% 30.05 in 5.0 mi WNW 4.6 mph - N/A Snow Light Snow
3:55 AM 32.0 °F 27.5 °F 21.2 °F 64% 30.04 in 10.0 mi WNW 4.6 mph - N/A   Overcast
4:15 AM 32.0 °F 25.6 °F 21.2 °F 64% 30.03 in 10.0 mi WNW 6.9 mph - N/A Snow Light Snow
4:35 AM 32.0 °F 26.4 °F 21.2 °F 64% 30.03 in 4.0 mi NW 5.8 mph - N/A Snow Light Snow
4:55 AM 32.0 °F 26.4 °F 23.0 °F 69% 30.03 in 3.0 mi WNW 5.8 mph - N/A Snow Light Snow
5:15 AM 32.0 °F 24.2 °F 23.0 °F 69% 30.03 in 4.0 mi WNW 9.2 mph - N/A Snow Light Snow
5:35 AM 32.0 °F 24.8 °F 23.0 °F 69% 30.03 in 3.0 mi WNW 8.1 mph - N/A Snow Light Snow
5:55 AM 32.0 °F 24.2 °F 23.0 °F 69% 30.03 in 4.0 mi WNW 9.2 mph - N/A Snow Light Snow
6:15 AM 32.0 °F 24.2 °F 24.8 °F 75% 30.03 in 3.0 mi NW 9.2 mph 19.6 mph N/A Snow Light Snow
6:35 AM 32.0 °F 24.2 °F 23.0 °F 69% 30.03 in 5.0 mi WNW 9.2 mph 18.4 mph N/A Snow Light Snow
6:55 AM 32.0 °F 25.6 °F 23.0 °F 69% 30.04 in 10.0 mi NW 6.9 mph - N/A   Overcast
7:15 AM 32.0 °F 24.2 °F 23.0 °F 69% 30.05 in 5.0 mi WNW 9.2 mph - N/A Snow Light Snow
7:35 AM 32.0 °F 26.4 °F 23.0 °F 69% 30.05 in 5.0 mi NW 5.8 mph - N/A Snow Light Snow
7:55 AM 32.0 °F 24.8 °F 23.0 °F 69% 30.06 in 4.0 mi WNW 8.1 mph 16.1 mph N/A Snow Light Snow
8:15 AM 32.0 °F 25.6 °F 23.0 °F 69% 30.07 in 10.0 mi NW 6.9 mph - N/A   Overcast
8:35 AM 32.0 °F 26.4 °F 23.0 °F 69% 30.07 in 10.0 mi WNW 5.8 mph - N/A   Overcast
8:55 AM 32.0 °F 25.6 °F 21.2 °F 64% 30.08 in 10.0 mi WNW 6.9 mph 23.0 mph N/A   Overcast
9:15 AM 32.0 °F 24.2 °F 21.2 °F 64% 30.09 in 5.0 mi WNW 9.2 mph 16.1 mph N/A Snow Light Snow
9:35 AM 33.8 °F 27.7 °F 21.2 °F 60% 30.11 in 10.0 mi NW 6.9 mph 18.4 mph N/A   Mostly Cloudy
9:55 AM 33.8 °F 26.4 °F 21.2 °F 60% 30.11 in 10.0 mi NW 9.2 mph 24.2 mph N/A   Overcast
10:15 AM 33.8 °F 27.0 °F 21.2 °F 60% 30.12 in 10.0 mi WNW 8.1 mph 20.7 mph N/A   Overcast
10:35 AM 35.6 °F 28.0 °F 23.0 °F 60% 30.12 in 10.0 mi NW 10.4 mph 24.2 mph N/A   Overcast
10:55 AM 35.6 °F 28.0 °F 23.0 °F 60% 30.13 in 10.0 mi NW 10.4 mph 19.6 mph N/A   Overcast
11:15 AM 35.6 °F 29.9 °F 21.2 °F 56% 30.14 in 10.0 mi NW 6.9 mph 17.3 mph N/A   Overcast
11:35 AM 37.4 °F 30.3 °F 21.2 °F 52% 30.14 in 10.0 mi NW 10.4 mph 24.2 mph N/A   Overcast
11:55 AM 39.2 °F 31.6 °F 19.4 °F 45% 30.14 in 10.0 mi WNW 12.7 mph 24.2 mph N/A   Scattered Clouds
12:15 PM 39.2 °F 35.0 °F 19.4 °F 45% 30.15 in 10.0 mi NW 5.8 mph 17.3 mph N/A   Mostly Cloudy
12:35 PM 41.0 °F 34.3 °F 17.6 °F 39% 30.15 in 10.0 mi NW 11.5 mph 28.8 mph N/A   Mostly Cloudy
12:55 PM 41.0 °F 35.8 °F 17.6 °F 39% 30.15 in 10.0 mi WNW 8.1 mph 16.1 mph N/A   Mostly Cloudy
1:15 PM 37.4 °F 32.8 °F 17.6 °F 45% 30.16 in 10.0 mi NW 5.8 mph 17.3 mph N/A   Overcast
1:35 PM 37.4 °F 31.4 °F 17.6 °F 45% 30.16 in 10.0 mi WNW 8.1 mph 17.3 mph N/A   Overcast
1:55 PM 39.2 °F 33.6 °F 17.6 °F 42% 30.16 in 10.0 mi NW 8.1 mph 19.6 mph N/A   Overcast
2:15 PM 37.4 °F 33.8 °F 17.6 °F 45% 30.16 in 10.0 mi NW 4.6 mph 19.6 mph N/A   Overcast
2:35 PM 39.2 °F 32.0 °F 17.6 °F 42% 30.16 in 10.0 mi NW 11.5 mph 21.9 mph N/A   Overcast
2:55 PM 42.8 °F 35.8 °F 17.6 °F 36% 30.16 in 10.0 mi NW 13.8 mph 23.0 mph N/A   Overcast
3:15 PM 42.8 °F 39.3 °F 17.6 °F 36% 30.16 in 10.0 mi NNW 5.8 mph 20.7 mph N/A   Overcast
3:35 PM 41.0 °F 35.2 °F 14.0 °F 33% 30.16 in 10.0 mi NW 9.2 mph 20.7 mph N/A   Mostly Cloudy
3:55 PM 39.2 °F 32.5 °F 15.8 °F 39% 30.16 in 10.0 mi NW 10.4 mph 23.0 mph N/A   Mostly Cloudy
4:15 PM 39.2 °F 33.6 °F 19.4 °F 45% 30.17 in 10.0 mi NW 8.1 mph 21.9 mph N/A   Overcast
4:35 PM 39.2 °F 33.0 °F 17.6 °F 42% 30.17 in 10.0 mi NW 9.2 mph 16.1 mph N/A   Overcast
4:55 PM 41.0 °F 33.9 °F 19.4 °F 42% 30.17 in 10.0 mi WNW 12.7 mph 17.3 mph N/A   Mostly Cloudy
5:15 PM 37.4 °F 30.3 °F 19.4 °F 48% 30.18 in 10.0 mi NW 10.4 mph 23.0 mph N/A   Overcast
5:35 PM 39.2 °F 35.0 °F 19.4 °F 45% 30.18 in 10.0 mi WNW 5.8 mph - N/A   Overcast
5:55 PM 37.4 °F 30.8 °F 19.4 °F 48% 30.18 in 10.0 mi WNW 9.2 mph 18.4 mph N/A   Overcast
6:15 PM 37.4 °F 33.8 °F 19.4 °F 48% 30.19 in 10.0 mi NW 4.6 mph - N/A   Overcast
6:55 PM 37.4 °F 30.3 °F 17.6 °F 45% 30.20 in 10.0 mi WNW 10.4 mph 19.6 mph N/A   Overcast
7:15 PM 37.4 °F 31.4 °F 17.6 °F 45% 30.21 in 10.0 mi WNW 8.1 mph 19.6 mph N/A   Overcast
7:35 PM 37.4 °F 33.8 °F 17.6 °F 45% 30.21 in 10.0 mi WNW 4.6 mph - N/A   Overcast
7:55 PM 35.6 °F 28.6 °F 17.6 °F 48% 30.21 in 10.0 mi NW 9.2 mph 16.1 mph N/A   Overcast
8:15 PM 35.6 °F 29.2 °F 17.6 °F 48% 30.22 in 10.0 mi WNW 8.1 mph - N/A   Overcast
8:35 PM 35.6 °F 29.9 °F 17.6 °F 48% 30.23 in 10.0 mi WNW 6.9 mph - N/A   Overcast
8:55 PM 35.6 °F 30.7 °F 17.6 °F 48% 30.24 in 10.0 mi WNW 5.8 mph - N/A   Overcast
9:15 PM 35.6 °F 29.2 °F 17.6 °F 48% 30.24 in 10.0 mi WNW 8.1 mph 16.1 mph N/A   Overcast
9:35 PM 35.6 °F 29.2 °F 17.6 °F 48% 30.25 in 10.0 mi WNW 8.1 mph 17.3 mph N/A   Overcast
9:55 PM 35.6 °F 28.6 °F 17.6 °F 48% 30.26 in 10.0 mi NW 9.2 mph 16.1 mph N/A   Mostly Cloudy
10:15 PM 33.8 °F 27.7 °F 17.6 °F 52% 30.26 in 10.0 mi WNW 6.9 mph - N/A   Mostly Cloudy
10:35 PM 33.8 °F 28.6 °F 19.4 °F 56% 30.26 in 10.0 mi NW 5.8 mph - N/A   Mostly Cloudy
10:55 PM 33.8 °F 28.6 °F 19.4 °F 56% 30.27 in 10.0 mi NW 5.8 mph - N/A   Scattered Clouds
11:15 PM 32.0 °F 27.5 °F 19.4 °F 60% 30.27 in 10.0 mi WNW 4.6 mph - N/A   Clear
11:35 PM 32.0 °F 27.5 °F 19.4 °F 60% 30.27 in 10.0 mi WNW 4.6 mph - N/A   Clear
11:55 PM 32.0 °F 27.5 °F 19.4 °F 60% 30.27 in 10.0 mi NW 4.6 mph - N/A   Clear